Corpus Christi, Texas Weather Center

Moon Phase Calendar



Online Cameras

 


      

Current Conditions in Ingleside
1/18/2022 1:56:15 AM

57°F
Feels Like 57
Clear
Humidity
84%
Pressure
30.06"
Wind
5.8 mph (SW)
Dew Point
53°F
UV Index
0/10 (Low)
Visibility
6 mi

Hourly Forecast

Date & Time Tue, Jan 18
1:00 AM
Tue, Jan 18
2:00 AM
Tue, Jan 18
3:00 AM
Tue, Jan 18
4:00 AM
Tue, Jan 18
5:00 AM
Tue, Jan 18
6:00 AM
Tue, Jan 18
7:00 AM
Tue, Jan 18
8:00 AM
Tue, Jan 18
9:00 AM
Tue, Jan 18
10:00 AM
Tue, Jan 18
11:00 AM
Tue, Jan 18
12:00 PM
Tue, Jan 18
1:00 PM
Tue, Jan 18
2:00 PM
Tue, Jan 18
3:00 PM
Tue, Jan 18
4:00 PM
Tue, Jan 18
5:00 PM
Tue, Jan 18
6:00 PM
Tue, Jan 18
7:00 PM
Tue, Jan 18
8:00 PM
Tue, Jan 18
9:00 PM
Tue, Jan 18
10:00 PM
Tue, Jan 18
11:00 PM
Wed, Jan 19
12:00 AM
Wed, Jan 19
1:00 AM
Wed, Jan 19
2:00 AM
Wed, Jan 19
3:00 AM
Wed, Jan 19
4:00 AM
Wed, Jan 19
5:00 AM
Wed, Jan 19
6:00 AM
Wed, Jan 19
7:00 AM
Wed, Jan 19
8:00 AM
Wed, Jan 19
9:00 AM
Wed, Jan 19
10:00 AM
Wed, Jan 19
11:00 AM
Wed, Jan 19
12:00 PM
Wed, Jan 19
1:00 PM
Wed, Jan 19
2:00 PM
Wed, Jan 19
3:00 PM
Wed, Jan 19
4:00 PM
Wed, Jan 19
5:00 PM
Wed, Jan 19
6:00 PM
Wed, Jan 19
7:00 PM
Wed, Jan 19
8:00 PM
Wed, Jan 19
9:00 PM
Wed, Jan 19
10:00 PM
Wed, Jan 19
11:00 PM
Thu, Jan 20
12:00 AM
Condition
Clouds

Clear

Clear

Clouds

Clouds

Clouds

Clear

Clear

Clear

Clear

Clear

Clear

Clouds

Clouds

Clouds

Clouds

Clouds

Clear

Clear

Clear

Clear

Clear

Clear

Clouds

Clear

Clouds

Clouds

Clouds

Clouds

Clouds

Clear

Clear

Clear

Clouds

Clouds

Clouds

Clouds

Clouds

Clouds

Clouds

Clouds

Clouds

Clear

Clear

Clouds

Clouds

Clouds

Rain
Temperature 59°F57°F59°F60°F60°F61°F62°F63°F64°F66°F68°F68°F68°F69°F69°F68°F68°F67°F68°F68°F68°F68°F67°F67°F67°F67°F67°F67°F67°F67°F67°F67°F68°F70°F71°F72°F72°F73°F72°F71°F71°F70°F70°F69°F69°F69°F68°F67°F
Feels Like 58°F57°F58°F59°F60°F61°F62°F62°F64°F66°F67°F68°F68°F68°F68°F68°F68°F67°F68°F68°F68°F68°F68°F68°F68°F68°F68°F68°F68°F68°F67°F67°F69°F70°F72°F72°F73°F73°F73°F72°F71°F70°F70°F70°F70°F70°F69°F68°F
Cloudiness 20%0%8%11%16%18%4%2%3%2%4%4%49%27%18%13%12%10%3%4%5%5%5%14%6%21%21%18%15%13%5%5%5%16%24%23%41%50%36%27%21%18%0%0%19%14%12%14%
Visibility 6 mi6 mi6 mi6 mi6 mi6 mi6 mi6 mi6 mi6 mi6 mi6 mi6 mi6 mi6 mi6 mi6 mi6 mi6 mi6 mi6 mi6 mi6 mi6 mi6 mi6 mi6 mi6 mi6 mi6 mi6 mi6 mi6 mi6 mi6 mi6 mi6 mi6 mi6 mi6 mi6 mi6 mi6 mi6 mi6 mi6 mi6 mi6 mi
Precipitation 0%0%0%0%0%0%0%0%0%0%0%0%0%0%0%0%0%0%0%0%0%0%0%0%0%0%0%0%0%0%0%0%0%0%0%0%0%0%0%0%0%0%1%1%0%2%18%34%
Humidity 80%84%81%79%78%77%77%75%71%67%65%64%64%65%66%68%72%75%77%78%79%80%81%82%84%84%84%83%83%86%88%88%85%80%75%73%73%72%74%77%79%82%84%85%85%86%87%89%
Dew Point 52°F53°F53°F53°F54°F54°F55°F55°F55°F55°F55°F55°F56°F56°F57°F57°F58°F59°F60°F61°F61°F61°F61°F62°F62°F62°F62°F62°F62°F63°F63°F63°F63°F63°F63°F63°F63°F63°F63°F64°F64°F64°F64°F65°F65°F64°F64°F64°F
Pressure 30.06"30.06"30.06"30.06"30.03"30.03"30.06"30.06"30.06"30.06"30.06"30.06"30"29.97"29.94"29.94"29.94"29.94"29.94"29.97"29.97"29.97"29.97"29.94"29.94"29.91"29.91"29.91"29.91"29.91"29.94"29.94"29.97"29.97"30"29.97"29.94"29.91"29.88"29.88"29.88"29.88"29.91"29.94"29.94"29.94"29.97"30"
Wind Speed 14.4 mph14.4 mph14.4 mph14 mph13.6 mph12.8 mph12.2 mph12.9 mph12.8 mph16.6 mph17.4 mph17.2 mph17.8 mph17.1 mph17 mph17.4 mph18 mph18.6 mph20 mph20.3 mph20 mph19.2 mph18.1 mph17.2 mph16.2 mph17 mph17.8 mph17.8 mph16.7 mph15.9 mph14.4 mph14.3 mph13.5 mph15 mph15.2 mph17.4 mph15.7 mph14.4 mph15.2 mph15.5 mph15.2 mph15.4 mph15.8 mph16 mph14.6 mph12.5 mph9.9 mph5.3 mph
Wind
Direction
181°
S
181°
S
181°
S
183°
S
185°
S
189°
S
188°
S
186°
S
188°
S
177°
S
174°
S
174°
S
169°
S
166°
SSE
164°
SSE
161°
SSE
159°
SSE
158°
SSE
159°
SSE
164°
SSE
167°
SSE
171°
S
175°
S
178°
S
180°
S
179°
S
179°
S
179°
S
179°
S
182°
S
186°
S
185°
S
190°
S
186°
S
193°
SSW
186°
S
179°
S
170°
S
161°
SSE
159°
SSE
161°
SSE
164°
SSE
168°
SSE
167°
SSE
173°
S
182°
S
199°
SSW
243°
WSW

Daily Forecast

Date High Low Precip. Humidity
Today
Jan 18

Clear
69 °F
57 °F
0%
64%
Wednesday
Jan 19

Clouds
73 °F
67 °F
0%
73%
Thursday
Jan 20

Rain
67 °F
44 °F
90%
69%
Friday
Jan 21

Rain
48 °F
39 °F
100%
60%
Saturday
Jan 22

Clear
53 °F
45 °F
0%
44%
Sunday
Jan 23

Rain
52 °F
49 °F
24%
53%
Monday
Jan 24

Rain
53 °F
49 °F
98%
82%
Tuesday
Jan 25

Rain
63 °F
55 °F
84%
79%
Wednesday
Jan 26

Clouds
66 °F
41 °F
12%
70%
Thursday
Jan 27

Snow
41 °F
31 °F
65%
69%
Friday
Jan 28

Clouds
45 °F
32 °F
0%
39%
Saturday
Jan 29

Clear
57 °F
41 °F
0%
47%
Sunday
Jan 30

Rain
67 °F
60 °F
39%
76%
Monday
Jan 31

Rain
66 °F
64 °F
28%
89%
Tuesday
Feb 1

Rain
66 °F
62 °F
30%
92%
Wednesday
Feb 2

Rain
66 °F
62 °F
53%
94%

Temperature 8-14 Day Outlook



Precipitation 8-14 Day Outlook




Quick Links
Corpus Christi, Texas News
Corpus Christi, Texas Photos
Corpus Christi, Texas Videos




About Us
Contact Us
Site Map
Search Site
Advertise With Us
   
CorpusChristi.USGulf.info
THE CORPUS CHRISTI, TEXAS WEBSITE

Copyright 2022, Coastal Town
Privacy    |    Legal